Location: Unspecified
(0.0000°N, 0.0000°E)
Time: 14:37:50
(UTC+02:00)

ARIANE 5 R/B - Visible Passes

Search period start: 20 July 2017 00:00
Search period end: 30 July 2017 00:00
Orbit: 665 x 38437 km, 7.2° (Epoch: 19 July)

Date Brightness Start Highest point End Pass type
(mag) Time Alt. Az. Time Alt. Az. Time Alt. Az.
20 Jul 10.9 22:49:30 10° W 23:50:28 16° W 01:28:00 10° W visible
21 Jul 10.7 21:24:24 10° W 22:53:25 30° W 02:21:43 10° W visible
22 Jul 4.2 07:46:49 10° W 07:56:45 45° NNW 08:00:33 10° ENE visible
22 Jul 10.6 20:15:03 10° W 21:55:04 45° W 03:07:21 10° W visible
23 Jul 4.6 06:43:22 15° W 06:58:31 58° NNW 07:03:13 10° ENE visible
23 Jul 6.9 19:11:04 10° W 20:55:17 60° WSW 06:06:00 10° ENE visible
24 Jul 7.0 18:09:47 10° W 19:53:34 75° WSW 05:08:44 10° ENE visible
25 Jul 6.4 17:10:03 10° W 19:54:14 82° S 04:11:18 10° E visible
26 Jul 7.3 16:11:17 10° W 20:59:14 82° S 03:13:34 10° E visible
27 Jul 7.5 15:13:10 10° W 21:46:35 82° S 02:15:23 10° E visible
28 Jul 6.9 14:15:28 10° W 00:08:06 84° SSE 00:42:00 75° ESE visible
